Location: San Vito
(41.8833°N, 12.9833°E)
Time: 21:59:17
(UTC+00:00)

Cosmos 2322 Rocket - Pass Details

Date: 17 November 2019
Orbit: 833 x 851 km, 71.0° (Epoch: 06 December)

Event Time Altitude Azimuth Distance (km) Brightness Sun altitude
Exits shadow 03:19:05 11° 360° (N) 2,399 4.5 -29.8°
Maximum altitude 03:23:28 25° 53° (NE) 1,641 4.1 -29.0°
Drops below altitude 10° 03:28:05 10° 108° (ESE) 2,467 5.5 -28.1°
Sets 03:30:58 0° 121° (ESE) 3,401 6.2 -27.6°
